FENGYUN 1C DEB

Satellite information

Favourite Embed

Satellite Type and Status

DEBRISIN ORBIT

Key statistics

Satellite FENGYUN 1C DEB at a glance.

Uptime

9715

Days in orbit

Revolutions

≈ 14.2

Per day

Orbit

SSO

Sun Synchronous Orbit

Inclination

99.1

Latest

Satellite identification and parameters

Extended collection of information and parameters for FENGYUN 1C DEB.

Object identification

Identified? True

Debris? True

Object name: FENGYUN 1C DEB

International designator: 1999-025ARM

Object number (NORAD): 30703

Object ID (CCSDS): 30703

Country: PEOPLES REPUBLIC OF CHINA (PRC)

Current information (Y/N): Y

RCS size: SMALL

Orbital parameters

Period: 101.456 minutes

Inclination: 99.1423 deg

SMA: 7205.764 km

Apoapsis: 912.412 km

Periapsis: 742.847 km

RAAN: 331.9625 deg

Eccentricy: 0.01176587

Argument of periapsis: 291.5555 deg

Mean anomaly: 122.5647 deg

Mean motion: 14.1932766 rev/day

Mean motion (dot): 0.00004007 rev/day2

B* drag term: 0.0018014575 1/REarth

Two-line elements (TLE)

Creation date: Dec. 13, 2025, 4:32 a.m.

Reference frame: TEME

Reference center: EARTH

Epoch: Dec. 12, 2025, 10:15 p.m. UTC

TLE line 0: 0 FENGYUN 1C DEB

TLE line 1: 1 30703U 99025ARM 25346.92749579 .00004007 00000-0 18015-2 0 9998

TLE line 2: 2 30703 99.1423 331.9625 0117659 291.5555 122.5647 14.19327660965436

Live tracking on map

Real-time ground track for satellite FENGYUN 1C DEB.

In-orbit conjunctions

A list of the most updated potential collisions computed for object FENGYUN 1C DEB.

Target Orbit TCA Probability of collision Miss distance Type
IRIDIUM 63 LEO 2025-11-01 23:19:47 0.0001089081 456.0 (m) PAYLOAD
METEOR 2-17 DEB LEO 2025-10-20 03:53:58 0.0001054201 179.0 (m) DEBRIS
SL-3 R/B LEO 2025-10-07 16:33:32 0.003384515 13.0 (m) ROCKET BODY
FALCONSAT SSO 2024-09-03 19:06:08 0.0001746792 101.0 (m) PAYLOAD
COSMOS 1249 LEO 2024-08-18 07:11:18 0.0002626578 746.0 (m) PAYLOAD

Associated space launch

Chinese polar orbiting meteorological satellite

FENGYUN 1C DEB was lifted into orbit during the mission ‘Long March 4B | Feng Yun 1C’, on board a Long March 4B space rocket.

The launch took place on May 10, 1999, 1:33 a.m. from Launch Complex 7.

For more information about the launch, click the button.

Launch to space Long March 4B | Feng Yun 1C
Long March 4B | Feng Yun 1C

Agency: N/A

Status: Launch Successful

Launch date: May 10, 1999, 1:33 a.m. UTC

Rocket: Long March 4B

Launch pad: Launch Complex 7

Location: Taiyuan Satellite Launch Center, People's Republic of China

...

Latest news about this satellite

There are no fresh news available about this satellite. Check back as we update our databases every day.


Newsletter sign-up

Weekly statistics, charts and insights to help you stay on top of the space industry.